DW4153 Weather Reports


time (UTC)temp
C
wind
direction
speed
KPH
gust
KPH
rain 1hr
cm
rain 24hr
cm
rain mn
cm
humidity
%
barometer
mb
20260507152025 15 251 3.2 11.3 0.00 0.10 0.00 50 1015.6
20260507145026 15 20 3.2 11.3 0.00 0.10 0.00 50 1015.5
20260507142038 15 27 1.6 9.7 0.00 0.10 0.00 51 1015.5
20260507135029 16 68 3.2 8.0 0.00 0.10 0.00 50 1015.6
20260507132036 15 8 1.6 9.7 0.00 0.10 0.00 54 1015.5
20260507125025 15 66 1.6 8.0 0.00 0.10 0.00 54 1015.3
20260507122024 15 25 0.0 6.4 0.00 0.10 0.00 57 1015.1
20260507115037 15 16 3.2 11.3 0.00 0.10 0.00 57 1015.1
20260507112027 15 19 1.6 8.0 0.00 0.10 0.00 61 1014.9
20260507105040 15 93 1.6 9.7 0.00 0.10 0.00 58 1014.9
20260507102031 15 114 0.0 8.0 0.00 0.10 0.00 55 1014.6
20260507095045 13 224 1.6 6.4 0.00 0.10 0.00 57 1014.5
20260507092035 13 30 1.6 8.0 0.00 0.10 0.00 60 1014.4
20260507085032 12 127 0.0 9.7 0.00 0.10 0.00 63 1014.2
20260507082032 12 67 1.6 8.0 0.00 0.10 0.00 66 1014.1
20260507075043 11 154 0.0 8.0 0.00 0.10 0.00 69 1014.0
20260507072042 10 116 0.0 6.4 0.00 0.10 0.00 69 1013.9
20260507065039 10 107 0.0 9.7 0.00 0.10 0.00 70 1013.5
20260507062037 8 71 0.0 3.2 0.00 0.10 0.00 68 1013.4
20260507055025 7 41 0.0 3.2 0.00 0.10 0.00 54 1013.2
20260507052025 6 6 0.0 0.0 0.00 0.10 0.00 55 1012.9
20260507042037 6 13 0.0 1.6 0.00 0.10 0.00 54 1012.3
20260507035032 6 27 0.0 0.0 0.00 0.10 0.00 55 1012.0
20260507032027 6 75 0.0 3.2 0.00 0.10 0.00 58 1011.8
20260507025025 6 65 0.0 3.2 0.00 0.10 0.00 59 1011.5
20260507012040 6 38 0.0 1.6 0.00 0.10 0.00 60 1010.9
20260507005035 6 41 0.0 0.0 0.00 0.10 0.00 60 1010.8
20260507002030 7 139 0.0 3.2 0.00 0.10 0.00 63 1010.8
20260506235043 7 324 0.0 3.2 0.00 0.10 0.00 62 1010.6
20260506232042 7 146 0.0 0.0 0.00 0.10 0.00 61 1010.8
20260506222043 7 265 0.0 1.6 0.00 0.10 0.00 61 1010.3
20260506215043 7 143 1.6 4.8 0.00 0.10 0.03 61 1010.1
20260506212039 8 290 0.0 1.6 0.00 0.10 0.03 58 1009.9
20260506205039 8 237 0.0 6.4 0.00 0.10 0.03 57 1009.7
20260506202036 8 25 0.0 4.8 0.00 0.10 0.03 53 1009.6
20260506195035 8 25 0.0 0.0 0.00 0.10 0.03 51 1009.3
20260506192035 8 64 0.0 1.6 0.00 0.10 0.03 54 1009.0
20260506185031 8 107 0.0 3.2 0.00 0.10 0.03 54 1008.7
20260506182036 8 325 0.0 3.2 0.00 0.10 0.03 54 1008.4
20260506175028 9 33 0.0 3.2 0.00 0.10 0.03 54 1008.2
20260506172026 9 276 1.6 6.4 0.00 0.10 0.03 56 1008.1
20260506165026 9 19 0.0 3.2 0.10 0.10 0.03 59 1007.8
20260506162041 10 354 0.0 4.8 0.10 0.10 0.03 64 1007.7
20260506155038 10 66 0.0 1.6 0.00 0.00 0.00 71 1007.8